TimeEDT,TemperatureF,Dew PointF,Humidity,Sea Level PressureIn,VisibilityMPH,Wind Direction,Wind SpeedMPH,Gust SpeedMPH,PrecipitationIn,Events,Conditions,WindDirDegrees,DateUTC
12:54 AM,59.0,55.0,87,30.00,10.0,Calm,Calm,-,N/A,,Clear,0,2012-10-06 04:54:00
1:54 AM,60.1,54.0,80,29.98,10.0,Calm,Calm,-,N/A,,Clear,0,2012-10-06 05:54:00
2:54 AM,57.9,54.0,87,29.96,10.0,Calm,Calm,-,N/A,,Clear,0,2012-10-06 06:54:00
3:54 AM,57.0,53.1,87,29.95,10.0,Calm,Calm,-,N/A,,Clear,0,2012-10-06 07:54:00
4:54 AM,57.0,53.1,87,29.94,10.0,Calm,Calm,-,N/A,,Scattered Clouds,0,2012-10-06 08:54:00
5:54 AM,59.0,54.0,83,29.94,10.0,West,3.5,-,N/A,,Clear,260,2012-10-06 09:54:00
6:54 AM,57.9,53.1,84,29.94,10.0,Calm,Calm,-,N/A,,Clear,0,2012-10-06 10:54:00
7:54 AM,60.1,54.0,80,29.94,10.0,SW,4.6,-,N/A,,Partly Cloudy,230,2012-10-06 11:54:00
8:54 AM,64.0,55.0,73,29.93,10.0,ESE,5.8,-,N/A,,Scattered Clouds,110,2012-10-06 12:54:00
9:54 AM,68.0,55.9,65,29.92,10.0,West,8.1,-,N/A,,Partly Cloudy,260,2012-10-06 13:54:00
10:54 AM,72.0,57.0,59,29.92,10.0,West,12.7,-,N/A,,Partly Cloudy,270,2012-10-06 14:54:00
11:54 AM,75.0,57.0,53,29.93,10.0,West,12.7,-,N/A,,Mostly Cloudy,260,2012-10-06 15:54:00
12:54 PM,72.0,55.9,57,29.96,10.0,WNW,11.5,-,N/A,,Mostly Cloudy,300,2012-10-06 16:54:00
1:54 PM,68.0,54.0,61,29.97,10.0,NNW,20.7,26.5,N/A,,Mostly Cloudy,330,2012-10-06 17:54:00
2:54 PM,64.9,48.9,56,29.98,10.0,NW,17.3,24.2,N/A,,Mostly Cloudy,310,2012-10-06 18:54:00
3:54 PM,66.0,48.0,52,29.97,10.0,West,12.7,19.6,N/A,,Mostly Cloudy,280,2012-10-06 19:54:00
4:54 PM,66.0,46.9,50,29.98,10.0,WNW,8.1,-,N/A,,Partly Cloudy,290,2012-10-06 20:54:00
5:54 PM,64.4,46.4,52,30.01,10.0,West,5.8,-,N/A,,Partly Cloudy,280,2012-10-06 21:54:00
6:54 PM,59.0,46.4,63,30.02,10.0,NNW,8.1,-,N/A,,Clear,330,2012-10-06 22:54:00
7:54 PM,57.0,44.1,62,30.05,10.0,NW,12.7,-,N/A,,Partly Cloudy,320,2012-10-06 23:54:00
8:54 PM,55.9,43.0,62,30.06,10.0,NW,13.8,-,N/A,,Partly Cloudy,320,2012-10-07 00:54:00
9:54 PM,54.0,39.9,59,30.03,10.0,North,10.4,-,N/A,,Scattered Clouds,360,2012-10-07 01:54:00
10:54 PM,55.0,37.0,51,30.06,10.0,NW,4.6,-,N/A,,Mostly Cloudy,310,2012-10-07 02:54:00
11:54 PM,54.0,37.9,55,30.04,10.0,NNW,5.8,-,N/A,,Overcast,330,2012-10-07 03:54:00